RH
82 82 83 83 83 82 78 77 77 76 76 75 74 73 73 73 74 92 93 93 93 98 88 75 72 83 89 95 98 86 87 87 97 97 98 96 96 96 96 96 95 95 94 98 95 98 94 96 73 89 98 80 56 57
83 84 84 84 83 82 78 78 78 77 76 75 73 72 72 72 72 81 97 90 91 95 91 75 74 73 75 75 90 90 86 94 99 96 97 98 97 97 95 97 77 92 98 97 93 98 100 98 96 77 78 63 62 61
84 85 85 84 84 83 79 79 79 77 76 74 72 71 71 72 71 76 98 96 96 94 95 84 74 55 68 76 70 89 91 83 93 90 99 99 99 98 97 96 96 76 84 93 97 92 87 96 82 67 54 61 59 59
85 85 84 84 84 83 80 80 80 78 77 74 70 71 71 71 72 72 97 96 94 95 95 84 56 62 53 58 76 62 73 81 86 96 98 100 99 84 84 74 76 77 73 86 96 91 89 81 80 60 57 58 54 55
85 85 84 84 84 82 80 81 80 78 76 74 71 71 70 70 73 87 97 96 94 86 98 95 75 62 59 61 60 66 77 82 93 94 98 98 93 85 84 75 68 59 49 80 88 72 74 61 58 56 57 58 62 68
85 85 85 85 84 83 81 82 79 77 76 74 72 72 71 72 75 95 96 93 91 87 96 99 77 68 56 60 61 67 78 87 91 92 93 91 77 77 82 73 56 55 48 53 52 51 55 55 54 49 56 59 62 68
85 85 85 85 83 82 82 80 78 76 72 71 71 72 74 74 95 96 92 89 73 83 95 97 93 71 55 58 77 80 79 86 85 90 94 90 84 81 85 73 55 50 57 64 68 51 52 49 55 56 58 60 60 65
86 86 85 84 82 83 83 80 76 69 70 71 72 75 77 75 80 93 81 72 80 82 91 93 92 82 60 79 82 90 90 92 91 89 93 91 81 89 84 61 60 56 61 65 70 63 57 52 55 61 61 64 70 78
87 86 86 84 83 84 84 80 71 67 69 71 73 77 91 94 99 90 79 77 88 88 96 99 97 90 70 78 91 86 92 96 92 95 94 82 80 79 66 70 73 68 65 73 71 67 55 58 60 64 67 70 77 81
88 86 85 84 85 85 85 80 71 66 70 73 89 92 97 94 78 74 87 96 97 95 97 99 91 92 76 91 93 90 96 94 93 80 78 81 73 76 78 78 78 66 58 59 63 66 65 66 64 70 72 73 78 84
87 87 86 85 83 85 78 74 64 68 77 94 98 96 82 72 73 89 97 95 96 98 97 96 89 90 82 87 89 88 92 92 87 77 70 78 88 89 85 83 73 64 58 56 56 62 62 64 75 79 82 83 82 82
83 84 84 81 78 76 73 64 62 84 91 91 88 90 83 88 92 87 96 91 93 88 84 87 85 80 77 82 88 88 81 85 73 80 84 87 83 87 82 77 69 69 68 68 67 74 75 74 78 78 79 79 84 88
84 81 80 70 64 66 70 60 62 66 78 90 95 92 91 87 91 97 100 87 92 74 72 76 80 70 73 84 92 90 85 87 77 91 85 87 87 82 83 77 75 80 77 78 77 78 79 80 80 79 81 83 89 96
82 79 70 66 61 66 64 63 65 73 87 97 95 94 91 94 89 89 82 79 75 77 72 78 92 90 96 86 94 89 82 78 88 90 76 93 88 84 81 78 78 89 88 88 89 86 87 90 91 92 93 93 97 97
76 78 72 68 68 69 65 61 66 87 89 98 90 95 90 81 86 86 84 82 75 71 75 86 88 86 94 85 88 80 87 88 86 80 93 91 80 83 85 85 86 87 89 85 84 86 92 92 91 90 87 91 94 95
74 74 74 71 69 68 66 72 86 91 94 96 85 89 86 93 93 98 98 92 84 84 89 85 80 86 83 87 84 84 72 80 82 94 97 92 85 84 86 85 85 82 82 85 87 86 85 85 86 84 87 93 96 94
76 85 74 77 76 72 72 87 94 93 96 80 90 95 94 90 92 96 96 90 86 86 89 91 81 75 87 88 88 82 86 87 93 96 94 85 85 85 84 82 89 81 80 75 76 72 74 76 76 78 80 81 84 84
84 78 74 76 75 75 84 88 94 92 91 84 91 91 96 94 93 92 84 87 85 85 85 76 74 79 85 70 88 87 94 95 96 92 92 88 81 84 80 80 76 73 73 70 70 74 76 80 86 93 93 92 92 92
79 79 77 77 77 86 92 90 86 91 84 88 88 86 89 91 88 85 86 86 82 78 84 86 78 87 73 85 88 92 96 95 94 93 93 82 84 85 82 76 73 71 70 72 79 82 85 88 95 96 97 85 94 92
78 80 79 78 75 93 85 85 79 85 88 88 88 85 84 86 83 93 87 86 83 80 86 88 79 83 87 82 90 85 90 91 95 96 96 97 92 85 81 81 76 70 79 79 85 91 95 94 95 95 97 98 98 98
96 90 81 86 96 99 97 95 94 91 88 92 84 85 87 88 94 95 92 92 96 90 94 87 83 85 84 79 84 84 86 86 84 84 90 95 95 90 84 78 76 82 86 89 94 98 98 99 99 98 99 99 98 99
98 97 100 98 98 95 93 84 94 86 95 88 87 85 93 95 94 94 96 97 96 82 88 85 79 85 83 78 77 80 79 80 79 87 87 91 92 87 79 82 82 90 91 95 96 98 98 99 99 98 98 98 97 98
97 98 99 99 98 97 89 85 90 87 94 88 88 89 93 95 91 92 93 93 93 94 87 83 79 81 81 80 80 77 80 84 87 82 80 86 88 85 86 89 87 90 96 97 98 98 98 99 98 97 98 96 97 99
96 98 98 98 97 96 94 97 86 87 93 91 91 85 85 87 86 95 89 93 92 96 96 81 94 93 85 76 94 87 85 90 94 91 85 92 91 85 87 87 90 92 91 95 96 98 98 98 98 93 97 97 100 98
97 99 98 97 96 99 97 99 97 96 96 93 85 93 87 82 94 99 93 91 98 98 97 96 95 95 94 95 98 97 87 95 94 90 92 78 88 95 96 93 92 89 93 96 98 97 98 98 97 94 98 100 96 98
96 93 98 92 97 96 92 99 97 94 94 92 90 84 95 96 97 95 89 93 98 99 98 94 93 96 96 94 97 96 94 96 89 93 88 81 83 85 89 92 95 95 96 92 96 96 97 98 98 98 99 100 100 96
96 97 94 82 83 83 93 88 84 90 92 90 92 96 95 97 98 90 95 98 91 95 94 95 95 96 95 96 98 97 96 93 90 88 90 89 90 85 83 87 89 87 87 91 92 93 95 98 98 100 100 100 100 98
90 85 96 95 99 87 91 96 94 94 93 87 88 98 97 92 88 92 95 95 95 93 95 96 96 95 96 97 97 94 95 94 91 88 88 92 97 98 94 97 95 88 88 91 92 95 95 96 97 97 97 98 100 100
99 88 85 99 96 95 89 88 92 91 86 86 91 94 92 92 95 93 91 94 96 95 95 94 95 99 98 98 98 97 90 86 84 88 85 93 98 97 98 96 94 93 93 94 94 92 91 97 99 96 97 96 99 99
98 83 97 94 94 94 92 90 92 92 84 89 92 96 97 97 96 98 94 92 92 92 89 92 97 95 96 95 97 98 98 97 93 88 88 90 91 94 94 92 94 94 94 93 94 96 91 98 93 94 96 99 99 100
88 93 96 95 96 94 91 94 98 99 97 96 99 95 95 95 98 99 99 100 100 100 99 98 99 96 97 98 99 98 96 94 91 88 90 94 94 93 93 91 90 94 94 92 94 95 96 98 93 91 93 100 100 100
94 90 91 100 100 97 98 96 97 96 98 98 97 100 96 98 97 98 98 99 99 98 98 98 98 98 98 98 98 97 97 95 92 90 87 92 94 92 92 92 92 91 93 95 93 93 96 93 92 92 94 99 100 100
99 97 94 98 98 98 99 96 98 97 97 98 98 99 100 97 94 98 96 97 97 98 98 98 98 98 94 92 96 95 98 94 93 91 94 95 95 95 94 94 91 90 92 94 95 94 93 88 91 92 94 98 100 100
Wind_Speed
17 17 18 17 16 15 15 15 13 11 9 7 4 4 5 5 6 3 3 3 5 2 5 5 4 2 3 2 1 6 6 6 5 8 3 3 3 4 4 5 5 3 1 2 3 1 4 11 7 6 3 6 3 9
17 17 17 16 14 15 14 13 11 9 7 5 4 4 4 5 5 4 1 2 2 2 7 4 12 14 10 12 3 2 3 2 3 3 2 3 3 3 7 4 6 3 5 2 3 2 3 4 4 3 4 4 6 9
17 17 17 16 14 14 13 11 9 7 6 4 3 4 5 5 5 2 2 2 3 2 5 3 4 4 5 9 7 2 3 3 1 5 3 2 3 2 3 4 3 1 2 3 1 4 2 9 9 3 6 9 5 5
19 18 16 15 14 13 12 10 8 6 4 3 3 4 5 5 5 4 1 1 2 1 2 7 4 7 5 4 7 6 5 0 2 3 1 1 3 3 3 4 1 4 2 1 1 4 5 7 6 2 5 7 7 8
18 17 15 14 13 11 10 8 6 4 2 3 4 4 5 6 7 2 3 4 3 5 3 6 9 6 6 6 7 6 6 3 2 1 1 3 3 1 3 2 4 2 3 3 4 4 3 1 5 5 9 7 7 7
18 16 14 13 12 10 8 6 4 2 2 4 5 6 6 6 7 2 4 3 3 4 3 3 5 6 3 4 5 4 4 3 3 4 4 4 5 2 2 1 4 4 6 2 3 3 6 4 7 6 8 6 6 6
18 16 14 12 11 9 7 5 2 1 4 6 7 7 7 6 2 3 5 3 3 3 3 4 5 6 3 2 1 0 1 3 4 2 3 3 3 3 1 2 2 5 3 4 4 2 4 2 4 6 7 6 7 6
17 16 15 12 11 9 7 4 2 2 6 8 9 9 9 5 1 3 4 7 3 3 2 2 5 5 0 1 2 1 1 1 1 3 2 3 3 2 1 3 3 3 4 5 3 4 3 4 7 6 5 4 4 3
17 17 16 14 11 9 8 5 3 5 8 9 11 11 3 2 1 3 4 8 2 4 2 2 2 4 3 1 2 3 2 1 1 3 4 4 2 3 6 4 1 3 1 4 2 4 5 5 5 5 4 3 1 1
16 15 15 14 11 10 9 6 2 8 11 11 2 1 4 4 7 6 6 4 1 2 1 3 2 3 2 2 3 2 1 2 1 5 1 3 4 1 1 3 1 3 5 5 4 1 0 1 2 3 2 1 1 0
16 15 13 12 11 10 7 7 4 11 6 2 2 1 4 2 4 2 0 2 1 2 4 5 6 3 2 2 3 3 3 1 1 5 2 2 3 4 3 2 2 2 5 5 4 3 2 4 5 5 2 0 1 2
15 15 14 12 9 7 5 4 2 3 2 3 2 2 2 3 2 2 3 2 4 5 3 4 5 6 3 3 3 2 2 2 5 2 4 3 4 3 4 3 5 5 6 6 6 6 6 5 3 2 1 3 3 4
16 15 14 10 4 6 6 6 4 4 4 1 2 1 3 2 2 5 5 4 2 3 3 3 1 3 2 4 2 2 1 5 2 3 4 5 3 3 4 3 4 6 6 6 6 5 3 1 2 2 4 4 3 4
14 16 13 10 10 9 8 8 6 2 1 2 4 3 5 4 5 6 5 4 5 3 3 3 1 3 1 3 2 2 4 2 3 1 5 3 5 6 4 2 4 3 5 5 5 5 6 6 5 2 4 5 5 6
15 15 15 13 11 11 10 9 7 2 2 3 3 5 7 5 4 4 4 3 4 2 3 3 3 3 1 1 2 1 3 4 5 5 4 3 6 5 5 4 5 3 0 3 3 4 5 6 5 5 7 6 5 6
17 15 9 15 16 14 12 8 3 2 2 3 5 2 4 2 4 1 2 3 2 1 3 3 2 2 4 3 3 6 3 6 5 3 3 2 5 5 6 5 5 3 1 3 4 4 4 5 5 6 6 5 5 4
16 3 15 17 16 16 14 4 3 4 4 4 4 2 3 2 4 3 3 3 2 3 3 3 3 10 1 2 3 4 6 5 4 3 3 6 8 7 6 5 4 2 2 2 1 4 3 4 5 6 7 7 7 7
2 5 10 21 15 8 1 3 3 4 6 5 3 4 3 3 3 3 3 2 3 3 4 4 3 4 5 5 4 4 3 3 3 4 5 5 5 6 5 6 5 3 1 4 4 3 4 5 5 4 6 9 8 7
5 5 15 22 10 5 4 4 3 4 6 3 3 3 3 3 4 3 3 3 4 3 2 2 5 5 8 3 4 3 3 3 4 4 3 4 6 7 7 5 4 5 5 3 4 3 2 3 1 2 3 5 6 5
12 12 21 21 8 3 4 3 3 3 3 4 2 3 4 4 3 3 4 4 4 3 4 5 7 5 4 3 4 3 4 3 3 2 3 3 4 7 6 5 4 5 4 4 2 3 3 3 3 3 3 4 4 5
8 4 20 8 2 0 1 2 3 4 3 3 2 3 3 1 3 3 4 4 3 4 4 5 4 4 5 4 4 4 5 5 6 6 5 4 4 4 4 4 5 4 3 2 2 1 2 1 2 2 2 3 3 3
5 11 4 3 2 1 3 4 3 2 1 3 2 3 2 2 3 4 3 3 4 7 6 5 5 4 4 6 6 6 7 7 4 3 2 4 4 3 5 6 5 3 3 2 2 3 2 1 1 2 2 3 4 3
11 3 3 2 3 6 6 3 3 4 2 3 1 2 3 3 4 2 1 4 4 4 5 6 6 7 7 7 4 5 5 7 4 4 4 3 3 3 5 5 5 6 4 0 2 3 2 2 0 2 2 3 3 3
7 5 6 7 6 5 2 3 3 3 2 2 3 3 3 4 2 1 4 4 4 1 2 3 2 1 1 2 2 4 4 4 2 3 5 7 6 5 5 5 4 3 4 3 3 2 1 2 1 2 3 2 3 3
6 7 5 7 5 4 6 3 5 3 5 5 3 3 4 2 2 2 4 4 2 1 2 1 2 2 2 3 3 3 2 3 5 5 2 5 4 4 3 2 3 4 4 4 2 2 1 0 1 1 2 3 4 4
6 9 11 9 6 7 7 6 7 7 4 3 6 4 1 3 2 6 4 4 3 4 4 4 3 0 2 3 2 2 3 2 4 3 3 5 6 7 7 7 4 3 3 4 5 4 3 2 1 3 3 2 4 5
7 8 5 4 4 3 1 2 3 4 6 6 4 2 3 3 6 6 3 2 2 3 3 4 3 3 3 3 1 1 1 2 4 4 3 3 3 5 7 8 7 5 6 6 5 5 5 4 3 4 4 1 1 4
6 7 10 6 3 3 5 3 5 6 5 4 4 4 6 9 7 4 4 3 3 3 2 2 3 3 2 3 3 4 3 3 6 6 6 5 3 2 3 2 3 11 7 6 6 5 4 5 5 6 5 5 2 1
5 4 7 4 3 4 7 7 7 4 4 4 6 5 5 4 3 2 2 2 1 3 2 1 3 2 3 3 2 1 5 7 7 5 7 4 1 2 1 3 5 5 5 5 5 6 6 4 6 6 6 5 3 3
5 6 4 5 7 8 6 6 5 4 3 4 3 2 3 3 3 2 3 3 2 4 5 3 2 4 3 4 3 2 3 2 3 5 6 6 6 4 6 5 5 4 4 4 5 3 5 4 6 4 5 4 4 4
5 4 4 4 5 5 5 4 2 2 2 3 1 4 4 3 3 3 3 1 1 2 2 3 4 4 5 4 4 3 6 5 8 8 4 3 4 7 8 8 6 7 6 6 5 4 4 3 4 6 7 6 4 5
4 6 7 5 3 2 3 4 5 3 2 3 2 2 4 4 2 2 3 3 4 3 3 2 3 2 1 1 2 3 8 5 6 9 10 5 5 7 7 7 7 6 7 7 5 5 5 9 6 6 6 6 6 5
3 3 4 3 4 6 3 4 4 3 2 2 2 3 3 4 4 3 2 2 4 4 3 3 4 3 4 4 5 6 7 8 10 12 12 11 11 10 7 6 7 7 7 6 5 6 9 10 7 7 7 7 6 5
Wind_Direction
142 132 120 112 117 125 121 119 117 118 107 97 83 53 43 26 8 85 255 197 135 190 267 226 222 253 323 185 281 282 17 350 357 25 45 316 305 338 307 339 351 17 351 309 21 46 334 340 336 55 138 238 35 57
143 130 123 135 144 133 126 124 121 113 107 90 67 43 31 14 4 51 299 312 151 182 242 224 262 251 201 217 147 297 199 251 214 38 18 311 329 310 333 353 323 19 359 42 117 201 335 346 343 252 203 116 56 61
141 141 149 149 141 135 128 124 119 110 95 75 38 16 14 0 352 46 240 262 55 291 309 358 244 307 186 209 184 162 306 213 292 180 185 255 302 81 341 289 293 316 324 37 102 17 57 65 294 49 80 87 82 69
156 153 151 150 142 134 131 129 120 112 95 61 16 360 352 340 333 339 192 244 119 127 300 281 313 296 257 201 178 199 186 129 127 97 224 214 246 189 263 270 253 213 12 65 48 233 299 257 258 346 82 68 51 46
156 155 154 148 141 138 138 132 125 108 78 21 356 341 334 327 327 322 206 230 182 130 216 281 307 261 267 206 210 199 162 147 135 15 81 246 255 3 268 347 334 316 215 130 225 240 196 70 131 127 80 64 57 69
157 154 151 147 146 144 143 137 122 94 21 346 330 325 322 324 345 37 19 313 190 167 83 318 286 288 304 206 217 206 192 154 142 161 229 266 255 127 337 252 263 345 33 164 204 139 125 141 102 97 96 82 80 72
156 153 152 155 151 151 149 136 111 34 345 328 321 320 315 305 101 154 186 215 352 92 82 315 308 270 265 161 5 243 67 186 145 203 227 226 275 131 200 246 299 358 56 49 2 134 52 103 125 100 97 80 64 54
160 160 159 160 152 155 155 152 155 336 335 326 319 315 312 297 313 295 254 235 118 93 92 257 268 336 184 311 302 184 177 29 266 212 290 227 311 134 252 229 318 344 84 33 33 62 71 111 111 106 100 90 65 54
173 166 163 158 160 165 170 183 210 325 331 319 313 307 43 64 83 238 121 93 85 129 187 206 210 251 351 305 246 347 100 355 278 216 241 123 247 224 215 186 27 338 30 173 28 9 67 84 111 125 112 86 89 335
165 167 165 161 166 177 183 184 261 331 314 305 341 88 354 233 123 90 19 41 22 288 182 235 193 272 95 14 299 21 39 222 268 243 116 176 241 284 144 169 153 8 111 133 96 20 188 100 91 143 133 165 153 181
169 166 168 171 183 179 174 170 27 335 329 74 80 180 242 158 63 52 333 148 223 258 213 230 185 207 273 134 226 178 229 249 339 268 162 264 283 230 203 205 324 3 104 79 73 59 71 124 135 133 113 122 256 293
171 166 160 155 162 181 181 168 47 2 79 213 204 283 342 52 47 159 229 261 194 233 216 182 207 187 258 116 100 303 230 20 255 322 61 287 256 158 172 162 50 57 54 59 63 66 88 88 103 117 265 291 282 291
160 162 169 165 175 217 199 216 207 239 340 19 88 348 87 288 191 186 220 230 246 230 214 190 251 138 22 49 46 66 33 241 359 37 229 226 226 157 170 108 82 50 48 40 17 16 13 323 212 228 283 281 278 298
180 177 178 169 205 198 201 191 191 208 163 156 149 285 181 242 227 203 203 196 235 218 174 130 87 131 201 61 168 111 247 356 324 319 239 242 185 183 168 132 90 59 40 24 356 337 326 333 305 287 258 248 227 248
193 185 182 183 187 186 187 181 167 105 197 221 187 228 217 221 239 234 222 308 271 212 113 59 38 93 323 78 212 252 304 252 212 233 235 206 190 168 147 135 141 143 6 332 314 318 307 310 293 297 297 286 259 268
182 183 191 184 185 179 175 160 133 173 250 223 236 253 244 106 279 313 220 223 255 124 64 63 119 67 240 200 175 216 233 222 245 228 223 139 145 157 169 177 175 185 230 293 317 308 310 338 342 320 330 340 317 282
168 175 178 181 177 169 162 149 161 210 223 233 246 213 188 211 210 221 186 232 173 92 169 123 140 214 86 233 244 204 210 208 216 233 203 186 180 189 186 172 171 201 229 328 317 10 23 10 11 14 355 329 321 309
131 183 171 170 159 134 91 216 214 218 237 235 222 240 207 201 196 230 215 204 135 178 139 200 175 193 212 213 224 244 230 244 229 203 200 193 183 176 171 172 184 192 87 92 85 52 33 28 22 348 339 339 319 315
164 164 165 160 146 134 154 189 182 250 236 237 229 221 198 231 226 212 205 210 186 173 135 165 229 216 227 227 208 237 235 195 190 219 213 191 180 177 176 181 162 122 123 117 95 72 39 49 32 340 332 349 357 20
162 154 160 159 153 159 174 211 171 230 255 236 236 220 200 211 209 194 208 198 161 170 199 222 225 214 195 225 205 207 219 191 140 151 238 228 192 175 188 169 151 138 131 118 86 62 65 38 7 355 357 347 348 350
94 180 159 134 70 253 255 215 217 222 240 233 230 178 246 226 209 202 217 168 150 200 235 225 240 240 225 242 213 210 226 189 195 189 196 207 200 170 154 133 128 138 135 124 107 96 94 112 288 310 18 344 329 343
101 89 101 119 124 217 260 226 214 250 218 251 312 198 247 276 251 223 173 155 222 219 210 224 238 217 240 250 244 212 224 214 200 156 132 122 135 156 159 155 144 145 143 158 149 157 192 229 320 342 53 338 353 14
98 93 99 110 175 194 251 145 181 211 188 240 203 209 240 233 232 97 214 218 240 213 204 215 231 213 227 252 249 257 206 173 179 184 171 133 106 122 132 150 148 146 139 174 148 155 169 231 82 34 353 41 29 21
120 146 161 184 183 216 201 192 207 211 210 234 225 219 234 222 166 119 236 244 235 255 168 220 168 257 337 272 257 246 245 202 177 145 143 144 163 180 159 158 164 154 146 145 142 157 162 209 215 37 15 58 45 75
132 173 190 189 187 174 188 206 177 191 226 207 210 272 258 158 175 233 229 256 249 214 182 127 91 114 189 256 286 275 255 158 160 158 158 145 120 95 105 138 163 158 141 124 132 144 207 321 59 38 92 98 96 67
190 200 190 188 177 170 190 170 194 201 170 204 224 235 102 120 160 244 239 229 215 182 189 179 163 135 293 205 209 240 229 178 110 122 188 170 159 158 169 172 171 229 190 151 142 153 161 187 133 108 111 104 107 97
196 202 179 202 176 173 181 191 162 140 180 199 220 151 119 208 238 249 270 241 172 217 175 168 156 172 218 267 252 262 115 125 154 178 138 126 141 164 165 177 189 197 161 157 153 156 162 166 145 151 138 44 108 128
202 183 174 175 189 173 170 166 156 175 200 214 134 177 196 197 230 236 208 238 172 155 135 156 165 169 181 210 157 125 66 73 82 84 76 50 39 59 113 110 131 144 145 145 148 146 149 154 158 156 148 145 133 34
206 185 131 169 156 168 197 178 199 213 199 156 165 203 231 223 201 174 237 181 128 105 119 206 293 42 52 59 63 354 144 148 129 144 185 196 171 250 246 114 125 122 131 133 142 144 155 159 171 158 155 142 150 105
230 160 124 150 164 204 219 177 195 223 189 173 148 62 9 319 243 190 113 114 156 216 219 205 195 151 191 173 201 283 269 226 182 159 177 201 208 167 165 161 158 151 136 138 140 120 109 76 86 73 93 83 72 74
155 133 109 149 206 218 203 185 155 113 114 142 75 141 202 234 357 24 39 332 254 161 145 230 247 203 181 190 196 204 252 230 219 212 196 162 151 164 171 172 167 157 156 157 153 147 129 115 124 124 121 122 131 123
143 172 157 159 246 207 133 154 165 159 163 111 244 61 18 42 284 292 307 29 44 60 36 25 16 343 335 260 315 294 260 248 198 206 202 186 169 167 167 161 157 156 153 159 165 156 149 144 145 144 141 141 143 143
111 130 150 140 151 162 185 124 161 160 100 143 261 192 190 178 220 221 263 120 152 180 213 236 250 268 279 276 255 273 260 275 237 196 180 158 151 154 152 156 156 157 149 145 151 147 149 148 148 147 145 148 152 155